Location: hvezdarna zebrak
(49.8744°N, 13.8989°E)
Time: 18:36:09
(UTC+02:00)

Tiangong - Pass Details

Date: 13 March 2026
Orbit: 376 x 385 km, 41.5° (Epoch: 18 April)

Event Time Altitude Azimuth Distance (km) Brightness Sun altitude
Exits shadow 05:23:12 - 209° (SSW) 1,808 0.9 -10.4°
Reaches altitude 10° 05:24:51 10° 187° (S) 1,405 0.6 -10.1°
Maximum altitude 05:26:12 12° 162° (SSE) 1,285 0.6 -9.9°
Drops below altitude 10° 05:27:34 10° 137° (SE) 1,411 1.2 -9.7°
Sets 05:30:37 0° 105° (ESE) 2,272 3.3 -9.2°
